[[{"header":{"parameterUnit":"m.s-1","parameterCategory":1,"la1":30.2991,"la2":30.254,"lo1":-89.0895,"lo2":-89.0444,"dy":0.0017,"dx":0.0017,"nx":28,"ny":28,"refTime":"2023-09-28T09:00:00:Z","depth":0,"parameterNumber":2,"parameterNumberName":"U-component_of_WINDS"},"data":[0,0,0,0,0,0,0,0,0,0,0,0,0,0,0,0,0,0,0,0,0,0,0,0,0,0,0,0,0,0,0,0,0,0,0,0,0,0,0,0,0,0,0,0,0,0,0,0,0,0,0,0,0,0,0,0,0,0,-5.527,-5.527,0,-5.5341,-5.5342,-5.5342,-5.5195,-5.519,-5.5185,-5.518,-5.5254,-5.526,-5.5266,0,0,0,0,0,0,0,0,0,0,0,0,0,-5.5005,-5.5011,-5.5269,-5.527,-5.5271,-5.5341,-5.5342,-5.5343,-5.5196,-5.519,-5.5184,-5.5178,-5.5251,-5.5259,-5.5267,0,0,0,0,0,0,0,0,0,0,0,0,0,-5.5103,-5.5012,-5.5269,-5.5206,-5.5201,-5.534,-5.5342,-5.5343,-5.5197,-5.5189,-5.5182,-5.5176,-5.5249,-5.5258,-5.5268,-5.5472,0,0,-5.5297,-5.5301,0,0,0,0,0,0,0,0,-5.5097,-5.5112,-5.5215,-5.5211,-5.5206,-5.5251,-5.5275,-5.5386,-5.5199,-5.5199,-5.518,-5.5172,-5.5259,-5.5267,-5.5296,-5.5475,-5.5478,-5.5298,-5.5304,-5.5308,-5.5311,0,0,0,0,0,0,0,-5.5091,-5.5108,-5.5298,-5.5216,-5.5211,-5.5174,-5.518,-5.5295,-5.5268,-5.5198,-5.5187,-5.5198,-5.5255,-5.5287,-5.5297,-5.5479,-5.5298,-5.5306,-5.5312,-5.5316,-5.5828,-5.5835,0,0,0,0,0,0,-5.5092,-5.5104,-5.5295,-5.53,-5.5132,-5.5185,-5.5191,-5.5244,-5.5266,-5.5263,-5.5204,-5.5191,-5.5274,-5.5286,-5.5299,-5.5538,-5.5308,-5.5317,-5.5323,-5.582,-5.5829,-5.5838,0,0,0,0,0,0,-5.5087,-5.511,-5.5292,-5.5199,-5.5219,-5.5197,-5.5257,-5.5249,-5.5281,-5.5271,-5.5265,-5.5242,-5.5269,-5.5285,-5.5429,-5.5539,-5.5321,-5.533,-5.5811,-5.5823,-5.5834,-5.6019,0,0,0,0,0,0,-5.508,-5.5109,-5.5187,-5.5202,-5.5225,-5.5423,-5.5264,-5.5256,-5.5299,-5.5282,-5.5305,-5.5302,-5.5265,-5.5416,-5.5439,-5.5548,-5.5338,-5.5801,-5.5816,-5.583,-5.6003,-5.6036,-5.6064,0,0,0,0,0,-5.5071,-5.5237,-5.5192,-5.5216,-5.5321,-5.5429,-5.5442,-5.5396,-5.5308,-5.5385,-5.5378,-5.5302,-5.5523,-5.5432,-5.5457,-5.557,-5.5794,-5.5812,-5.5829,-5.599,-5.603,-5.6063,0,0,0,0,0,0,-5.5235,-5.5237,-5.5188,-5.5363,-5.5397,-5.5404,-5.55,-5.544,-5.5499,-5.5481,-5.542,-5.5427,-5.5583,-5.5591,-5.5489,-5.5768,-5.5643,-5.5667,-5.5757,-5.5795,-5.5825,-5.582,-5.5346,0,0,0,0,0,-5.5292,-5.538,-5.5377,-5.5532,-5.5551,-5.5524,-5.5569,-5.553,-5.5563,-5.5576,-5.558,-5.5615,-5.5691,-5.5744,-5.5814,-5.6004,-5.6006,-5.6094,-5.6124,-5.6149,-5.617,-5.627,-5.6309,-5.5895,-5.5895,-5.5895,0,0,-5.541,-5.5422,-5.5481,-5.5565,-5.5587,-5.5679,-5.5537,-5.564,-5.5707,-5.5592,-5.5728,-5.5732,-5.5767,-5.5935,-5.6009,-5.5946,-5.6285,-5.6172,-5.6192,-5.6199,-5.6292,-5.6331,-5.6366,-5.5907,-5.5905,-5.5903,0,0,-5.5672,-5.569,-5.5821,-5.5846,-5.588,-5.586,-5.5892,-5.5909,-5.5907,-5.6043,-5.5958,-5.6037,-5.6171,-5.6199,-5.6231,-5.6503,-5.6434,-5.6528,-5.6686,-5.6784,-5.6817,-5.6845,-5.6942,-5.6977,-5.6549,-5.6549,-5.6549,0,-5.5814,-5.5949,-5.5896,-5.6005,-5.6044,-5.5944,-5.6076,-5.6102,-5.6159,-5.6188,-5.6117,-5.6283,-5.6299,-5.6472,-5.6538,-5.6567,-5.6601,-5.6525,-5.6816,-5.6845,-5.687,-5.6962,-5.6998,-5.656,-5.6559,-5.6558,-5.6557,0,-5.6122,-5.6217,-5.6318,-5.6375,-5.6426,-5.6546,-5.6511,-5.6568,-5.6525,-5.6513,-5.6652,-5.6668,-5.6739,-5.6777,-5.6736,-5.6945,-5.6904,-5.6826,-5.6699,-5.6922,-5.7007,-5.7041,-5.6576,-5.6572,-5.6569,-5.6566,0,0,-5.6489,-5.6515,-5.6553,-5.6577,-5.6608,-5.668,-5.6795,-5.6865,-5.6916,-5.6958,-5.7053,-5.7169,-5.7096,-5.7133,-5.7093,-5.718,-5.7394,-5.7091,-5.709,-5.7146,-5.7623,-5.7682,-5.7723,-5.7349,-5.7355,-5.736,-5.762,0,-5.6748,-5.6946,-5.6902,-5.7097,-5.7184,-5.709,-5.719,-5.722,-5.7211,-5.7283,-5.7273,-5.7357,-5.7255,-5.7276,-5.7358,-5.7351,-5.7489,-5.7331,-5.7436,-5.744,-5.743,-5.7768,-5.783,-5.8075,-5.7653,-5.7659,-5.7663,0,-5.7076,-5.7131,-5.7335,-5.7351,-5.7386,-5.7477,-5.7537,-5.7608,-5.7639,-5.7627,-5.7668,-5.7612,-5.7725,-5.7598,-5.7754,-5.7648,-5.7688,-5.7691,-5.7699,-5.7707,-5.7565,-5.7784,-5.8152,-5.8188,-5.7715,-5.7711,-5.7707,0,-5.7323,-5.7448,-5.7586,-5.7609,-5.7632,-5.7698,-5.771,-5.7735,-5.7779,-5.7832,-5.786,-5.7926,-5.7962,-5.8014,-5.7977,-5.7888,-5.8139,-5.8008,-5.8131,-5.8133,-5.8188,-5.8185,-5.8567,-5.8215,-5.8215,-5.8214,-5.8213,0,-5.7617,-5.7745,-5.7697,-5.7782,-5.7923,-5.787,-5.8011,-5.8012,-5.8035,-5.8118,-5.804,-5.812,-5.8067,-5.8142,-5.8114,-5.8247,-5.8264,-5.8257,-5.8248,-5.8263,-5.8264,-5.8288,-5.827,-5.8224,-5.8222,-5.822,-5.8218,0,-5.7916,-5.7889,-5.8033,-5.8042,-5.8048,-5.8151,-5.8159,-5.8237,-5.8223,-5.833,-5.8351,-5.8329,-5.8414,-5.8382,-5.8472,-5.8453,-5.8623,-5.8592,-5.8613,-5.8604,-5.8729,-5.8718,-5.9139,-5.9192,-5.8807,-5.8811,-5.8814,0,-5.8105,-5.8201,-5.8221,-5.8271,-5.8289,-5.8371,-5.8416,-5.8368,-5.8418,-5.8461,-5.8535,-5.8613,-5.8672,-5.8812,-5.8803,-5.8872,-5.8841,-5.8985,-5.8851,-5.8864,-5.8843,-5.8837,-5.8847,-5.9011,-5.9016,-5.9019,-5.9022,0,-5.8442,-5.8424,-5.8492,-5.8556,-5.8612,-5.866,-5.8701,-5.8747,-5.87,-5.8761,-5.8846,-5.8893,-5.8984,-5.9063,-5.9124,-5.9136,-5.9072,-5.9064,-5.9096,-5.9113,-5.9121,-5.9118,-5.8685,-5.9055,-5.9052,-5.9049,-5.9047,-5.9046,-5.8691,-5.8772,-5.8799,-5.8877,-5.8903,-5.8943,-5.9018,-5.9013,-5.9083,-5.9154,-5.9121,-5.922,-5.9248,-5.9324,-5.9345,-5.9422,-5.9366,-5.9412,-5.9424,-5.9436,-5.9452,-5.911,-5.9433,-5.9432,-5.9431,-5.943,-5.9429,0,-5.9024,-5.9036,-5.9109,-5.9169,-5.9231,-5.9165,-5.9207,-5.9263,-5.9351,-5.9383,-5.9443,-5.9541,-5.9616,-5.9615,-5.9684,-5.9746,-5.9718,-5.9766,-5.976,-5.9764,-5.9498,-5.9463,-5.9787,-5.9787,-5.9787,-5.9787,-5.9786,-5.9786,-5.9204,-5.9338,-5.9323,-5.9469,-5.948,-5.9576,-5.9605,-5.9642,-5.9667,-5.978,-5.9842,-5.984,-5.9859,-5.9929,-5.9995,-5.9992,-6.0021,-6.008,-6.0067,-5.9818,-5.9783,-5.9749,-5.9716,-6.0087,-6.0087,-6.0325,-6.0328,-6.0329]},{"header":{"parameterUnit":"m.s-1","parameterCategory":1,"la1":30.2991,"la2":30.254,"lo1":-89.0895,"lo2":-89.0444,"dy":0.0017,"dx":0.0017,"nx":28,"ny":28,"refTime":"2023-09-28T09:00:00:Z","depth":0,"parameterNumber":3,"parameterNumberName":"V-component_of_WINDS"},"data":[0,0,0,0,0,0,0,0,0,0,0,0,0,0,0,0,0,0,0,0,0,0,0,0,0,0,0,0,0,0,0,0,0,0,0,0,0,0,0,0,0,0,0,0,0,0,0,0,0,0,0,0,0,0,0,0,0,0,-2.9568,-2.9568,0,-2.9607,-2.9607,-2.9608,-2.9581,-2.958,-2.9578,-2.9577,-2.9616,-2.9618,-2.962,0,0,0,0,0,0,0,0,0,0,0,0,0,-2.9467,-2.9469,-2.9568,-2.9568,-2.9569,-2.9607,-2.9607,-2.9608,-2.9581,-2.958,-2.9578,-2.9577,-2.9615,-2.9618,-2.962,0,0,0,0,0,0,0,0,0,0,0,0,0,-2.9509,-2.947,-2.9568,-2.956,-2.956,-2.9607,-2.9607,-2.9608,-2.9581,-2.958,-2.9578,-2.9576,-2.9614,-2.9617,-2.9621,-2.9676,0,0,-2.963,-2.9632,0,0,0,0,0,0,0,0,-2.9507,-2.9513,-2.9561,-2.9561,-2.956,-2.9587,-2.9586,-2.9631,-2.9582,-2.9573,-2.9577,-2.9575,-2.9608,-2.9611,-2.9622,-2.9678,-2.968,-2.9631,-2.9633,-2.9634,-2.9635,0,0,0,0,0,0,0,-2.9504,-2.9511,-2.9583,-2.9561,-2.9561,-2.9554,-2.9558,-2.9594,-2.96,-2.9574,-2.9572,-2.9577,-2.9607,-2.9619,-2.9623,-2.968,-2.9631,-2.9633,-2.9635,-2.9637,-2.9782,-2.9784,0,0,0,0,0,0,-2.9502,-2.9509,-2.9582,-2.9584,-2.9529,-2.9557,-2.9561,-2.958,-2.96,-2.9601,-2.9578,-2.9576,-2.9615,-2.9619,-2.9624,-2.969,-2.9634,-2.9637,-2.9639,-2.978,-2.9782,-2.9784,0,0,0,0,0,0,-2.95,-2.9509,-2.958,-2.9546,-2.9555,-2.9561,-2.9582,-2.9582,-2.9594,-2.9603,-2.9604,-2.959,-2.9614,-2.962,-2.9663,-2.9691,-2.9638,-2.9641,-2.9778,-2.9781,-2.9783,-2.9822,0,0,0,0,0,0,-2.9497,-2.9508,-2.953,-2.9547,-2.9557,-2.962,-2.9584,-2.9584,-2.96,-2.9597,-2.9614,-2.9615,-2.9613,-2.9659,-2.9667,-2.9694,-2.9644,-2.9775,-2.9779,-2.9782,-2.9818,-2.9826,-2.9832,0,0,0,0,0,-2.9494,-2.954,-2.9532,-2.9541,-2.9584,-2.9621,-2.9627,-2.9623,-2.9603,-2.9624,-2.9629,-2.9615,-2.9687,-2.9663,-2.9672,-2.9701,-2.9774,-2.9778,-2.9782,-2.9815,-2.9824,-2.9832,0,0,0,0,0,0,-2.9527,-2.9542,-2.9533,-2.9586,-2.9603,-2.9617,-2.9644,-2.9633,-2.9656,-2.9652,-2.9645,-2.965,-2.9695,-2.9702,-2.9676,-2.9755,-2.9727,-2.9733,-2.9749,-2.9758,-2.9764,-2.9761,-2.9647,0,0,0,0,0,-2.954,-2.9569,-2.9581,-2.9626,-2.9635,-2.9638,-2.9654,-2.965,-2.9666,-2.9673,-2.9682,-2.9698,-2.9724,-2.9741,-2.9766,-2.9819,-2.9822,-2.9843,-2.985,-2.9856,-2.9861,-2.9888,-2.9898,-2.9799,-2.9799,-2.9799,0,0,-2.9568,-2.958,-2.9599,-2.9633,-2.9646,-2.9675,-2.9644,-2.9677,-2.9699,-2.9678,-2.9719,-2.9726,-2.9744,-2.9792,-2.9814,-2.9799,-2.9889,-2.9862,-2.9866,-2.9868,-2.9894,-2.9903,-2.9912,-2.9802,-2.9801,-2.9801,0,0,-2.9634,-2.9647,-2.9685,-2.9698,-2.9717,-2.9718,-2.9727,-2.9743,-2.9746,-2.9788,-2.9773,-2.9797,-2.9843,-2.9855,-2.9868,-2.9936,-2.9923,-2.9945,-2.9981,-3.0008,-3.0015,-3.0022,-3.0045,-3.0054,-2.995,-2.995,-2.995,0,-2.9666,-2.9711,-2.9706,-2.974,-2.9754,-2.9737,-2.9775,-2.9788,-2.9813,-2.9824,-2.9807,-2.9863,-2.9874,-2.9924,-2.994,-2.9951,-2.996,-2.9943,-3.0015,-3.0022,-3.0028,-3.005,-3.0059,-2.9952,-2.9952,-2.9952,-2.9952,0,-2.9749,-2.978,-2.9808,-2.9833,-2.9851,-2.9887,-2.9887,-2.9905,-2.9899,-2.9902,-2.9943,-2.9955,-2.9981,-2.9993,-2.9987,-3.0042,-3.0032,-3.0016,-2.9987,-3.004,-3.006,-3.0069,-2.9956,-2.9955,-2.9954,-2.9954,0,0,-2.9837,-2.9858,-2.9869,-2.9879,-2.9898,-2.9921,-2.9955,-2.9981,-2.9996,-3.0014,-3.0042,-3.008,-3.0064,-3.0078,-3.0073,-3.0097,-3.0149,-3.0077,-3.0077,-3.0089,-3.0208,-3.0219,-3.0229,-3.014,-3.0142,-3.0143,-3.0206,0,-2.9903,-2.9963,-2.9959,-3.0015,-3.0043,-3.0026,-3.0055,-3.0069,-3.0072,-3.0095,-3.0098,-3.0125,-3.0103,-3.0111,-3.0133,-3.0138,-3.0172,-3.0133,-3.0164,-3.0166,-3.016,-3.024,-3.0253,-3.0312,-3.0214,-3.0215,-3.0216,0,-2.9989,-3.0009,-3.0068,-3.0081,-3.0092,-3.0119,-3.0141,-3.0163,-3.0178,-3.0179,-3.0194,-3.0185,-3.0218,-3.0188,-3.0233,-3.0206,-3.0219,-3.0222,-3.0225,-3.0227,-3.0194,-3.0244,-3.0331,-3.034,-3.0229,-3.0228,-3.0227,0,-3.0046,-3.0088,-3.0128,-3.0138,-3.0154,-3.0173,-3.0181,-3.0194,-3.0209,-3.0228,-3.0237,-3.026,-3.0272,-3.0289,-3.0286,-3.0265,-3.0331,-3.0301,-3.0331,-3.0331,-3.0346,-3.0345,-3.0435,-3.0355,-3.0355,-3.0355,-3.0355,0,-3.0119,-3.0156,-3.0154,-3.0179,-3.0218,-3.0213,-3.0252,-3.0257,-3.0268,-3.0293,-3.028,-3.0303,-3.0297,-3.032,-3.0318,-3.0354,-3.036,-3.036,-3.0359,-3.0361,-3.0361,-3.0369,-3.0365,-3.0357,-3.0357,-3.0356,-3.0356,0,-3.019,-3.019,-3.0233,-3.0245,-3.0248,-3.0277,-3.0286,-3.0309,-3.031,-3.0341,-3.0348,-3.0351,-3.0376,-3.0375,-3.0404,-3.0402,-3.0447,-3.0441,-3.0442,-3.0441,-3.047,-3.0467,-3.0568,-3.058,-3.0493,-3.0494,-3.0495,0,-3.0237,-3.0264,-3.0279,-3.0294,-3.0303,-3.0328,-3.0343,-3.0338,-3.0354,-3.0372,-3.0392,-3.0417,-3.0436,-3.0478,-3.0481,-3.0503,-3.0497,-3.0531,-3.0501,-3.0501,-3.0497,-3.0495,-3.0497,-3.0537,-3.0538,-3.0539,-3.054,0,-3.0319,-3.0318,-3.034,-3.0362,-3.038,-3.0397,-3.0413,-3.0426,-3.0422,-3.044,-3.0467,-3.0482,-3.0511,-3.0535,-3.0555,-3.0562,-3.055,-3.0549,-3.0557,-3.0559,-3.0558,-3.0558,-3.0458,-3.0547,-3.0546,-3.0546,-3.0545,-3.0545,-3.0379,-3.0402,-3.0415,-3.044,-3.045,-3.0465,-3.0486,-3.049,-3.0512,-3.0535,-3.0531,-3.056,-3.0572,-3.0598,-3.0607,-3.0629,-3.0617,-3.0628,-3.0631,-3.0634,-3.0637,-3.0555,-3.0633,-3.0633,-3.0632,-3.0632,-3.0632,0,-3.0459,-3.0467,-3.049,-3.0511,-3.053,-3.0517,-3.0533,-3.055,-3.0576,-3.0588,-3.0607,-3.0636,-3.0659,-3.0664,-3.0686,-3.0702,-3.0697,-3.0708,-3.0706,-3.0708,-3.0647,-3.0638,-3.0712,-3.0712,-3.0712,-3.0712,-3.0712,-3.0712,-3.0504,-3.0541,-3.0541,-3.0583,-3.059,-3.0618,-3.0628,-3.0641,-3.0651,-3.0684,-3.0703,-3.0706,-3.0715,-3.0737,-3.0757,-3.0758,-3.0766,-3.0779,-3.0777,-3.072,-3.0712,-3.0705,-3.0696,-3.0781,-3.0781,-3.0836,-3.0837,-3.0837]}]]